Regional Weather Roundup
Issued by NWS

Home | Current Version | Previous Version | Graphics & Text | Print | Product List | Glossary On
Versions: 1 2 3 4 5 6 7 8 9 10 11 12 13 14 15 16 17 18 19 20 21 22 23 24 25 26 27 28 29 30 31 32 33 34 35 36 37 38 39 40 41 42 43 44 45 46 47 48 49 50
989
ASUS43 KMPX 121001
RWRMN
WEATHER ROUNDUP FOR MINNESOTA
NATIONAL WEATHER SERVICE TWIN CITIES/CHANHASSEN MN
400 AM CST TUE DEC 12 2017


NOTE: "FAIR" INDICATES FEW OR NO CLOUDS BELOW 12,000 FEET WITH NO
SIGNIFICANT WEATHER AND/OR OBSTRUCTIONS TO VISIBILITY. N/A MEANS
CURRENT SKY AND/OR WEATHER CONDITIONS ARE NOT AVAILABLE.

MNZ060>063-068>070-121100-
   Twin Cities Metro

CITY           SKY/WX    TMP DP  RH WIND       PRES   REMARKS
TWIN CITIES    CLEAR      9   4  80 NW12G22   30.25F WCI  -6
ST PAUL        CLEAR      9   2  73 NW12      30.27S WCI  -6
CRYSTAL        CLEAR      7   0  73 NW10      30.24F WCI  -8
BLAINE         CLEAR      9   3  78 NW12      30.24S WCI  -6
LAKEVILLE      CLEAR      7   5  92 NW10      30.24R WCI  -8
EDEN PRAIRIE   CLEAR     10   3  73 NW9       30.25R WCI  -3
SOUTH ST PAUL  CLEAR     10   3  72 NW9       30.24S WCI  -2
LAKE ELMO      FAIR      10   5  79 NW9       30.23F WCI  -2
$$
MNZ001>005-007-008-013>017-022>024-027-028-121100-
   Northwest Minnesota

CITY           SKY/WX    TMP DP  RH WIND       PRES   REMARKS
BEMIDJI        CLOUDY    -2  -6  85 W3        30.18S
HALLOCK        CLOUDY    12   9  85 S9        30.16F WCI   0
ROSEAU         CLOUDY    -2  -6  84 S3        30.17F
WARROAD        CLOUDY    -6  -9  84 SW3       30.17F
CROOKSTON      CLOUDY    12   9  85 S10       30.20F WCI  -1
FOSSTON        FLURRIES   3   1  92 SW6       30.20F WCI  -8
DETROIT LAKES  CLOUDY     9   5  85 CALM      30.21F
MOORHEAD       CLOUDY    10   5  79 CALM      30.24F
PARK RAPIDS    CLOUDY    -3  -8  79 W3        30.19F
MAHNOMEN       CLOUDY     7   4  88 SW3       30.21F
$$
MNZ006-009>011-018-025>026-121100-
   North Central Minnesota

CITY           SKY/WX    TMP DP  RH WIND       PRES   REMARKS
BAUDETTE       CLOUDY    -2  -5  87 W3        30.16F
FLAG ISLAND    CLOUDY     0  -6  78 CALM      30.15F
INTL FALLS     CLOUDY    -3  -8  79 CALM      30.14F
WASKISH        CLOUDY     0  -4  85 CALM      30.17F
LONGVILLE      CLOUDY    -6  -9  84 CALM      30.19S
GRAND RAPIDS   CLOUDY     0  -3  87 NW7       30.18F WCI -13
CRANE LAKE     CLOUDY     0  -4  85 CALM      30.17S
ORR            CLOUDY    -4  -8  84 CALM      30.11S
COOK           CLOUDY     0  -4  85 NW5       30.14S WCI -10
WALKER         FAIR      -1  -4  87 CALM      30.19S
$$
MNZ012-019>021-037-121100-
   Northeast Minnesota

CITY           SKY/WX    TMP DP  RH WIND       PRES   REMARKS
DULUTH         PTCLDY    -2  -5  87 W6        30.12F WCI -14
ELY            CLEAR      0  -6  78 CALM      30.10F
HIBBING        CLOUDY     0  -3  87 NW10      30.14S WCI -16
EVELETH        FLURRIES   0  -6  76 CALM      30.13S
DULUTH HARBOR  PTCLDY     7   1  78 W7        30.22S WCI  -5
TWO HARBORS    CLEAR      1  -6  71 W3        30.12F
GRAND MARAIS     N/A      5  -4  66 VRB3      30.14S
G MARAIS ARPRT CLEAR     -2 -11  65 NW5       30.00S WCI -12
$$
MNZ029>031-032-039>041-046>048-054>057-064-121100-
   West Central Minnesota

CITY           SKY/WX    TMP DP  RH WIND       PRES   REMARKS
FERGUS FALLS   CLOUDY     7   3  85 CALM      30.29F
WHEATON        CLOUDY     9   5  85 S6        30.29F WCI  -1
MORRIS         CLOUDY     7   3  85 CALM      30.27F
ALEXANDRIA     CLOUDY     6   3  87 NW7       30.24F WCI  -6
ELBOW LAKE     MOCLDY     5   2  88 CALM      30.26F
WADENA         CLOUDY     3   0  85 W5        30.21F WCI  -6
GLENWOOD       CLEAR      7   3  85 W9        30.24F WCI  -7
APPLETON         N/A      7   3  85 W5        30.30F WCI  -2
BENSON         CLOUDY     7   1  78 NW6       30.30F WCI  -3
ORTONVILLE     CLOUDY     9   7  92 CALM      30.29S
MADISON        CLOUDY    12   9  85 W5        30.31S WCI   4
WILLMAR        FAIR       9   5  85 W6        30.27F WCI  -1
$$
MNZ033>034-036-042>043-049>051-058-059-121100-
   Central Minnesota

CITY           SKY/WX    TMP DP  RH WIND       PRES   REMARKS
ST CLOUD       CLOUDY     3   0  87 NW6       30.25F WCI  -8
SAUK CENTRE    PTSUNNY    4   0  84 W5        30.24F WCI  -6
PAYNESVILLE    CLOUDY     5   2  88 W5        30.26F WCI  -4
AITKIN         PTCLDY    -2  -6  84 CALM      30.19S
PINE RIVER     CLOUDY    -2  -6  84 CALM      30.23S
BRAINERD       CLOUDY    -1  -6  79 CALM      30.21F
STAPLES        CLOUDY     0  -4  85 W7        30.22S WCI -13
LONG PRAIRIE   MOCLDY     5   1  85 SW6       30.24F WCI  -6
LITTLE FALLS   CLOUDY     1  -6  71 CALM      30.24F
LITCHFIELD     CLEAR      9   5  85 NW10      30.26F WCI  -6
BUFFALO        CLEAR      7   2  78 W7        30.27F WCI  -4
MAPLE LAKE     MOCLDY     8   4  84 W5        30.26F WCI  -1
HUTCHINSON     PTCLDY     9   4  82 W6        30.27F WCI  -1
$$
MNZ037-044-045-052-053-121100-
   East Central Minnesota

CITY           SKY/WX    TMP DP  RH WIND       PRES   REMARKS
PRINCETON      CLOUDY     3   0  85 CALM      30.23F
MORA           CLOUDY     5   1  85 W5        30.24S WCI  -4
CAMBRIDGE      CLOUDY     7  -2  66 W7        30.25R WCI  -5
RUSH CITY      MOCLDY     6   2  84 W5        30.23S WCI  -3
MOOSE LAKE     PTCLDY     3   0  85 CALM      30.18S
HINCKLEY       FAIR       7   3  85 W5        30.22R WCI  -2
CLOQUET        PTCLDY     1  -4  78 W5        30.16R WCI  -8
MCGREGOR       CLOUDY     3   0  85 W5        30.19S WCI  -6
$$
MNZ071>073-080-081-089-090-097-098-121100-
   Southwest Minnesota

CITY           SKY/WX    TMP DP  RH WIND       PRES   REMARKS
MONTEVIDEO     CLOUDY     9   5  85 NW5       30.30F WCI   0
GRANITE FALLS  CLOUDY    11   7  83 W7        30.31F WCI   1
CANBY          CLOUDY    12   9  86 SW6       30.31S WCI   3
MARSHALL       CLOUDY     8   5  87 W5        30.30F WCI   0
REDWOOD FALLS  CLOUDY    10   5  80 NW9       30.29F WCI  -3
OLIVIA         CLOUDY    10   5  79 NW6       30.27F WCI   1
PIPESTONE      CLOUDY    12   9  85 NW8       30.25F WCI   1
WINDOM           N/A     12   0  57 NW13      30.26S WCI  -3
WORTHINGTON    CLOUDY    11   8  88 NW9       30.27F WCI  -2
JACKSON        CLEAR     12   9  85 MISG      30.25F
TRACY          CLOUDY    12  10  89 NW6       30.27F WCI   3
SLAYTON        CLOUDY    10   8  89 NW9       30.27F WCI  -2
$$
MNZ065>067-074>077-082>085-091>093-121100-
   South Central Minnesota

CITY           SKY/WX    TMP DP  RH WIND       PRES   REMARKS
MANKATO        CLEAR      9   4  80 NW12      30.27S WCI  -6
NEW ULM        CLEAR     10   3  72 NW14      30.28S WCI  -5
ST JAMES       CLEAR     10   7  85 NW14      30.29S WCI  -5
FAIRMONT       CLEAR     12   6  77 NW15      30.27S WCI  -4
GLENCOE        CLEAR     10   5  80 NW8       30.26F WCI  -2
FARIBAULT      CLEAR      9   3  78 W7        30.24S WCI  -3
OWATONNA       CLEAR      9   3  78 NW12      30.23R WCI  -6
WASECA         CLEAR     10   5  79 NW12      30.25S WCI  -4
ALBERT LEA     CLEAR     10   5  79 NW7       30.22S WCI   0
$$
MNZ078>079-086>088-094>096-121100-
   Southeast Minnesota

CITY           SKY/WX    TMP DP  RH WIND       PRES   REMARKS
ROCHESTER      CLEAR     10   7  87 NW13      30.18S WCI  -5
RED WING       CLEAR     10   3  72 NW6       30.22S WCI   1
STANTON        CLEAR     11   6  79 NW7       30.23S WCI   0
DODGE CENTER   PTCLDY     9   5  85 NW15      30.18S WCI  -8
WINONA           N/A     18  10  73 NW10G22   30.21S WCI   6
AUSTIN         CLEAR     10   7  85 NW14      30.20S WCI  -5
PRESTON        CLEAR     12   9  86 NW13G20   30.16S WCI  -3
$$
ABBREVIATIONS USED IN REMARKS
   TC - TEMPERATURES IN CELSIUS
  WCI - WIND CHILL INDEX
   HX - HEAT INDEX
  VSB - VISIBILITY
$$




USA.gov is the U.S. government's official web portal to all federal, state and local government web resources and services.